Location: Narrabri
(30.3170°S, 149.7830°E)
Time: 23:57:08
(UTC+11:00)

Vanguard 2 Rocket - Visible Passes

Search period start: 11 December 2017 00:00
Search period end: 21 December 2017 00:00
Orbit: 555 x 3326 km, 32.9° (Epoch: 10 December)

Date Brightness Start Highest point End Pass type
(mag) Time Alt. Az. Time Alt. Az. Time Alt. Az.
11 Dec 10.1 05:08:52 10° N 05:12:13 11° NNE 05:15:10 10° NE visible
13 Dec 9.7 05:18:20 10° NNW 05:27:17 21° NNE 05:33:35 10° ENE visible
14 Dec 10.1 04:18:53 10° N 04:26:47 17° NNE 04:32:53 10° ENE visible
15 Dec 10.4 03:21:17 10° NNE 03:25:56 12° NNE 03:30:02 10° NE visible
15 Dec 9.2 05:30:24 10° NNW 05:42:13 34° NNE 05:49:35 10° E visible
16 Dec 9.7 04:30:00 10° NNW 04:41:45 27° NNE 04:49:50 10° E visible
17 Dec 10.0 03:33:49 16° N 03:40:58 21° NNE 03:49:17 10° ENE visible
18 Dec 10.4 02:37:33 15° NNE 02:39:52 16° NNE 02:47:15 10° ENE visible
18 Dec 9.3 04:43:22 13° NNW 04:56:35 40° NNE 05:05:31 10° E visible
19 Dec 9.7 03:47:03 21° NNW 03:55:48 33° NNE 04:05:42 10° E visible
20 Dec 10.0 02:50:41 23° NNE 02:54:43 26° NNE 03:05:04 10° E visible
20 Dec 8.9 04:56:29 12° NW 05:11:18 56° NNE 05:20:39 10° E visible
